| time (UTC) | temp F | wind direction | speed MPH | gust MPH | rain 1hr in | rain 24hr in | rain mn in | humidity % | barometer mb |
| 20260905081542 | 68 | 186 | 0.0 | 0.0 | 0.00 | 0.40 | 0.00 | 93 | 1010.5 |
| 20260905080041 | 69 | 186 | 0.0 | 0.0 | 0.00 | 0.40 | 0.00 | 93 | 1010.7 |
| 20260905074551 | 69 | 186 | 0.0 | 0.0 | 0.00 | 0.40 | 0.00 | 93 | 1010.7 |
| 20260905073056 | 69 | 186 | 0.0 | 0.0 | 0.00 | 0.40 | 0.00 | 93 | 1010.7 |
| 20260905071534 | 69 | 186 | 0.0 | 2.0 | 0.00 | 0.40 | 0.00 | 93 | 1011.0 |
| 20260905070032 | 69 | 186 | 0.0 | 0.0 | 0.00 | 0.40 | 0.00 | 93 | 1011.1 |
| 20260905064531 | 69 | 186 | 0.0 | 0.0 | 0.00 | 0.40 | 0.00 | 93 | 1011.2 |
| 20260905063028 | 69 | 186 | 0.0 | 0.0 | 0.00 | 0.40 | 0.00 | 92 | 1011.5 |
| 20260905061526 | 70 | 186 | 0.0 | 0.0 | 0.00 | 0.40 | 0.00 | 92 | 1011.8 |
| 20260905060023 | 70 | 186 | 0.0 | 0.0 | 0.00 | 0.40 | 0.00 | 91 | 1011.8 |
| 20260905054521 | 70 | 186 | 0.0 | 2.0 | 0.00 | 0.40 | 0.00 | 92 | 1012.0 |
| 20260905053020 | 70 | 186 | 0.0 | 2.0 | 0.00 | 0.40 | 0.00 | 92 | 1012.2 |
| 20260905051519 | 70 | 185 | 0.0 | 2.0 | 0.00 | 0.40 | 0.00 | 92 | 1012.3 |
| 20260905050019 | 70 | 184 | 0.0 | 0.0 | 0.00 | 0.40 | 0.00 | 91 | 1012.4 |
| 20260905044519 | 71 | 184 | 0.0 | 2.0 | 0.00 | 0.47 | 0.00 | 92 | 1012.5 |
| 20260905043015 | 71 | 184 | 0.0 | 1.0 | 0.00 | 0.47 | 0.00 | 91 | 1012.6 |
| 20260905041512 | 71 | 185 | 0.0 | 2.0 | 0.00 | 0.47 | 0.00 | 90 | 1012.5 |
| 20260905040014 | 72 | 185 | 0.0 | 1.0 | 0.00 | 0.47 | 0.00 | 90 | 1012.4 |
| 20260905034509 | 72 | 185 | 0.0 | 0.0 | 0.00 | 0.93 | 0.47 | 90 | 1012.6 |
| 20260905033022 | 72 | 186 | 0.0 | 2.0 | 0.00 | 0.93 | 0.47 | 89 | 1012.8 |
| 20260905031507 | 72 | 189 | 0.0 | 3.0 | 0.00 | 0.93 | 0.47 | 90 | 1012.8 |
| 20260905030008 | 72 | 205 | 0.0 | 3.0 | 0.00 | 0.93 | 0.47 | 91 | 1012.7 |
| 20260905024505 | 72 | 190 | 0.0 | 2.0 | 0.00 | 0.93 | 0.47 | 91 | 1012.7 |
| 20260905023018 | 72 | 194 | 0.0 | 2.0 | 0.00 | 0.93 | 0.47 | 92 | 1012.4 |
| 20260905021504 | 72 | 180 | 0.0 | 2.0 | 0.00 | 0.93 | 0.47 | 92 | 1012.2 |
| 20260905020003 | 72 | 197 | 0.0 | 2.0 | 0.00 | 0.93 | 0.47 | 92 | 1012.2 |
| 20260905014502 | 72 | 198 | 0.0 | 2.0 | 0.00 | 0.93 | 0.47 | 92 | 1011.9 |
| 20260905013002 | 72 | 174 | 0.0 | 1.0 | 0.00 | 0.93 | 0.47 | 93 | 1011.6 |
| 20260905011503 | 72 | 174 | 0.0 | 1.0 | 0.00 | 0.93 | 0.47 | 93 | 1011.4 |
| 20260905010001 | 72 | 170 | 0.0 | 2.0 | 0.00 | 0.93 | 0.47 | 93 | 1011.5 |
| 20260905004502 | 72 | 169 | 0.0 | 0.0 | 0.00 | 0.93 | 0.47 | 93 | 1011.5 |
| 20260905003100 | 73 | 170 | 0.0 | 2.0 | 0.00 | 0.93 | 0.47 | 93 | 1011.4 |
| 20260905001608 | 73 | 170 | 0.0 | 0.0 | 0.00 | 0.93 | 0.47 | 93 | 1011.2 |
| 20260905000116 | 73 | 170 | 0.0 | 1.0 | 0.00 | 0.93 | 0.47 | 93 | 1011.3 |
| 20260904234558 | 74 | 170 | 0.0 | 2.0 | 0.00 | 0.93 | 0.47 | 93 | 1011.3 |
| 20260904233059 | 74 | 170 | 0.0 | 2.0 | 0.00 | 0.93 | 0.47 | 93 | 1011.5 |
| 20260904231601 | 74 | 170 | 0.0 | 0.0 | 0.00 | 0.93 | 0.47 | 93 | 1011.6 |
| 20260904230057 | 74 | 170 | 0.0 | 1.0 | 0.00 | 0.93 | 0.47 | 93 | 1011.7 |
| 20260904224603 | 74 | 166 | 0.0 | 0.0 | 0.00 | 0.93 | 0.47 | 94 | 1011.7 |
| 20260904223057 | 74 | 166 | 0.0 | 0.0 | 0.00 | 0.93 | 0.47 | 94 | 1011.6 |
| 20260904221556 | 73 | 166 | 0.0 | 0.0 | 0.00 | 0.93 | 0.47 | 94 | 1011.9 |
| 20260904220112 | 73 | 166 | 0.0 | 0.0 | 0.00 | 0.93 | 0.47 | 94 | 1011.7 |
| 20260904214555 | 73 | 166 | 0.0 | 2.0 | 0.00 | 0.93 | 0.47 | 94 | 1012.0 |
| 20260904213055 | 73 | 173 | 0.0 | 2.0 | 0.00 | 0.93 | 0.47 | 94 | 1012.2 |
| 20260904211559 | 72 | 170 | 0.0 | 1.0 | 0.00 | 0.93 | 0.47 | 94 | 1012.2 |
| 20260904204554 | 72 | 164 | 0.0 | 2.0 | 0.00 | 0.93 | 0.47 | 93 | 1012.8 |
| 20260904203053 | 71 | 161 | 0.0 | 2.0 | 0.01 | 0.93 | 0.47 | 93 | 1012.8 |
| 20260904201551 | 71 | 115 | 0.0 | 3.0 | 0.37 | 0.93 | 0.47 | 91 | 1013.0 |
| 20260904200051 | 71 | 217 | 0.0 | 2.0 | 0.40 | 0.93 | 0.47 | 92 | 1013.0 |
| 20260904194555 | 71 | 263 | 0.0 | 2.0 | 0.40 | 0.93 | 0.47 | 90 | 1011.6 |
| 20260904193050 | 72 | 207 | 0.0 | 2.0 | 0.39 | 0.92 | 0.46 | 86 | 1011.8 |
| 20260904191550 | 83 | 324 | 8.0 | 23.0 | 0.03 | 0.56 | 0.10 | 58 | 1013.3 |
| 20260904190048 | 91 | 340 | 0.0 | 2.0 | 0.00 | 0.53 | 0.07 | 62 | 1011.0 |
| 20260904184552 | 92 | 28 | 0.0 | 3.0 | 0.00 | 0.53 | 0.07 | 59 | 1011.3 |
| 20260904183044 | 91 | 81 | 0.0 | 2.0 | 0.00 | 0.53 | 0.07 | 60 | 1011.4 |
| 20260904181551 | 92 | 115 | 0.0 | 2.0 | 0.00 | 0.53 | 0.07 | 58 | 1012.1 |
| 20260904180043 | 91 | 198 | 0.0 | 2.0 | 0.00 | 0.53 | 0.07 | 56 | 1012.2 |
| 20260904174602 | 91 | 238 | 0.0 | 2.0 | 0.00 | 0.53 | 0.07 | 56 | 1012.2 |
| 20260904173037 | 91 | 185 | 0.0 | 2.0 | 0.00 | 0.53 | 0.07 | 55 | 1012.5 |
| 20260904171535 | 91 | 350 | 0.0 | 2.0 | 0.00 | 0.53 | 0.07 | 57 | 1012.6 |
| 20260904170030 | 90 | 347 | 1.0 | 5.0 | 0.00 | 0.53 | 0.07 | 58 | 1012.8 |
| 20260904164530 | 89 | 203 | 0.0 | 2.0 | 0.00 | 0.53 | 0.07 | 59 | 1013.1 |
| 20260904163027 | 88 | 213 | 0.0 | 2.0 | 0.00 | 0.53 | 0.07 | 58 | 1013.2 |
| 20260904161527 | 88 | 344 | 0.0 | 3.0 | 0.00 | 0.53 | 0.07 | 59 | 1013.5 |
| 20260904160025 | 88 | 325 | 0.0 | 2.0 | 0.00 | 0.53 | 0.07 | 62 | 1013.4 |
| 20260904154522 | 87 | 9 | 0.0 | 2.0 | 0.00 | 0.53 | 0.07 | 62 | 1013.5 |
| 20260904153028 | 86 | 346 | 0.0 | 2.0 | 0.00 | 0.53 | 0.07 | 63 | 1013.6 |
| 20260904151516 | 85 | 345 | 0.0 | 2.0 | 0.00 | 0.53 | 0.07 | 64 | 1013.6 |
| 20260904150014 | 84 | 355 | 0.0 | 2.0 | 0.00 | 0.53 | 0.07 | 67 | 1013.6 |
| 20260904144511 | 83 | 346 | 0.0 | 2.0 | 0.00 | 0.53 | 0.07 | 67 | 1013.9 |
| 20260904143008 | 82 | 338 | 0.0 | 4.0 | 0.00 | 0.53 | 0.07 | 69 | 1014.0 |
| 20260904141503 | 81 | 329 | 0.0 | 2.0 | 0.00 | 0.53 | 0.07 | 72 | 1014.1 |
| 20260904140059 | 79 | 220 | 0.0 | 2.0 | 0.00 | 0.53 | 0.07 | 74 | 1014.0 |
| 20260904134555 | 77 | 221 | 0.0 | 2.0 | 0.00 | 0.53 | 0.07 | 78 | 1014.1 |
| 20260904133102 | 75 | 84 | 0.0 | 0.0 | 0.00 | 0.53 | 0.07 | 88 | 1014.1 |
| 20260904131546 | 73 | 83 | 0.0 | 2.0 | 0.00 | 0.53 | 0.07 | 91 | 1014.0 |
| 20260904130043 | 72 | 82 | 0.0 | 2.0 | 0.00 | 0.53 | 0.07 | 93 | 1014.0 |
| 20260904124545 | 71 | 82 | 0.0 | 2.0 | 0.00 | 0.53 | 0.07 | 93 | 1014.3 |
| 20260904123103 | 71 | 81 | 0.0 | 2.0 | 0.00 | 0.53 | 0.07 | 94 | 1014.3 |
| 20260904121538 | 71 | 82 | 0.0 | 2.0 | 0.00 | 0.53 | 0.07 | 95 | 1014.2 |
| 20260904120039 | 70 | 83 | 0.0 | 2.0 | 0.00 | 0.53 | 0.07 | 95 | 1013.9 |
| 20260904114537 | 69 | 82 | 0.0 | 2.0 | 0.00 | 0.53 | 0.07 | 95 | 1013.6 |
| 20260904113047 | 69 | 29 | 0.0 | 1.0 | 0.00 | 0.53 | 0.07 | 94 | 1013.7 |
| 20260904111535 | 69 | 29 | 0.0 | 2.0 | 0.00 | 0.53 | 0.07 | 95 | 1013.9 |
| 20260904110039 | 69 | 344 | 0.0 | 2.0 | 0.00 | 0.53 | 0.07 | 94 | 1013.6 |
| 20260904104533 | 69 | 344 | 0.0 | 2.0 | 0.00 | 0.53 | 0.07 | 94 | 1013.6 |
| 20260904103034 | 68 | 342 | 0.0 | 0.0 | 0.00 | 0.53 | 0.07 | 94 | 1013.3 |
| 20260904101532 | 68 | 342 | 0.0 | 3.0 | 0.00 | 0.53 | 0.07 | 94 | 1013.7 |
| 20260904100035 | 68 | 338 | 0.0 | 3.0 | 0.00 | 0.53 | 0.07 | 94 | 1013.7 |
| 20260904094531 | 68 | 350 | 0.0 | 2.0 | 0.00 | 0.53 | 0.07 | 94 | 1013.2 |
| 20260904093041 | 68 | 184 | 0.0 | 0.0 | 0.00 | 0.53 | 0.07 | 95 | 1012.6 |
| 20260904091530 | 68 | 184 | 0.0 | 2.0 | 0.00 | 0.53 | 0.07 | 94 | 1012.6 |
| 20260904090030 | 68 | 184 | 0.0 | 2.0 | 0.00 | 0.53 | 0.07 | 94 | 1012.5 |
| 20260904084529 | 68 | 184 | 0.0 | 0.0 | 0.00 | 0.53 | 0.07 | 94 | 1012.6 |
| 20260904083028 | 68 | 184 | 0.0 | 2.0 | 0.00 | 0.53 | 0.07 | 94 | 1012.5 |